Location: Newark
(48.5667°N, 7.8167°E)
Time: 06:25:01
(UTC+00:00)

JY1SAT - Pass Details

Date: 24 July 2021
Orbit: 568 x 591 km, 97.7° (Epoch: 19 September)

Event Time Altitude Azimuth Distance (km) Brightness Sun altitude
Exits shadow 20:48:37 18° 152° (SSE) 1,446 ? -12.3°
Maximum altitude 20:51:34 65° 73° (ENE) 649 ? -12.6°
Drops below altitude 10° 20:55:43 10° 352° (N) 1,927 ? -13.0°
Sets 20:57:54 0° 350° (N) 2,835 ? -13.3°
